GFSGL_850_spd_087.txt.gz
Wind_Speed
27 27 24 20 20 20 17 15 12 13 12 12 12 13 14 16 15 21 26 29 42 40 35 31 26 25 27 29 25 21 19 18 24 29 31 29 29 27 24 21 23 24 29
27 22 21 24 21 18 16 16 14 11 10 10 11 13 14 14 16 18 30 29 32 35 30 27 27 27 31 29 28 30 34 32 31 34 36 36 33 27 30 31 29 26 33
19 22 24 20 18 18 17 15 14 12 11 10 10 9 13 16 16 19 20 26 31 29 30 29 29 30 32 35 36 34 32 34 34 33 34 31 30 30 28 29 34 35 33
19 23 21 22 21 18 18 18 16 14 15 14 14 14 13 15 16 17 20 23 24 25 27 27 27 27 27 28 29 27 25 24 22 26 29 29 30 28 31 31 29 29 31
19 21 21 20 19 20 20 19 18 17 16 15 15 11 18 15 13 14 13 13 10 16 19 22 23 25 24 21 21 19 18 15 16 19 21 22 24 27 26 27 30 17 23
22 21 21 20 21 20 20 20 20 19 17 16 17 17 16 15 14 13 13 14 15 16 16 18 20 19 21 22 20 20 26 25 25 24 26 25 23 17 19 22 31 35 34
20 21 20 21 19 19 21 25 25 23 20 19 18 18 18 17 17 17 17 16 15 18 16 15 15 16 15 15 20 21 19 22 26 27 27 28 27 28 27 24 22 21 22
19 18 17 19 19 20 20 19 21 23 22 21 21 21 21 19 18 18 19 18 17 17 16 16 13 11 14 18 19 18 18 18 18 18 16 15 16 17 17 17 18 19 19
15 16 17 17 18 19 22 23 21 21 21 20 18 18 19 17 15 13 13 17 17 16 14 14 11 8 7 8 9 9 10 10 11 12 10 9 9 9 11 10 10 10 13
20 18 18 17 17 19 18 19 17 15 18 18 18 15 13 14 11 12 11 12 13 12 10 8 5 6 11 12 9 7 7 4 2 1 2 3 3 3 5 4 4 5 6
16 16 18 17 17 19 15 17 14 16 18 19 18 17 15 10 10 10 11 5 5 6 6 8 12 11 10 9 7 7 7 6 5 3 3 4 4 3 4 4 4 4 4
14 15 15 15 18 17 16 17 18 15 15 20 21 23 20 19 16 13 13 11 14 16 19 19 18 15 14 12 12 12 10 9 9 7 6 6 5 4 4 4 3 4 4
10 12 13 13 15 15 15 18 18 18 16 17 16 24 27 25 25 24 23 20 18 18 18 17 16 14 13 11 11 10 7 6 5 3 4 4 4 4 4 4 4 4 6
10 12 11 11 13 14 14 16 18 18 18 18 17 22 22 20 19 18 17 15 14 12 12 11 9 8 6 6 6 5 4 3 3 4 4 4 4 3 3 2 2 1 3
20 19 17 15 13 15 16 17 17 17 15 15 18 18 17 18 18 15 13 12 10 10 7 7 6 4 5 6 5 4 4 3 3 3 3 3 3 3 3 2 2 2 3
15 16 18 18 17 17 15 19 20 17 15 16 16 13 15 15 15 13 10 9 8 7 4 5 6 5 4 5 5 5 3 3 3 3 2 2 4 3 5 4 4 4 4
10 11 11 10 10 11 13 14 16 16 14 13 12 12 12 12 11 10 7 5 5 5 5 7 6 4 4 4 3 3 3 3 3 3 3 3 4 4 4 6 6 4 3
9 9 8 8 8 8 9 9 10 10 12 14 14 11 9 8 7 6 6 5 6 5 5 5 4 3 3 3 3 2 1 2 4 4 3 3 3 5 5 5 6 6 6
9 11 10 9 9 9 8 6 6 6 7 9 10 8 9 6 5 4 3 4 5 5 4 2 1 2 2 2 3 4 5 4 5 6 5 3 3 3 4 5 6 5 7
7 8 6 6 6 6 6 4 4 5 4 4 4 5 3 4 5 5 4 3 2 1 1 1 1 3 4 5 4 5 6 7 6 6 6 5 4 5 4 6 6 6 8
5 4 4 3 4 3 3 2 3 3 4 6 6 4 1 2 2 2 1 1 1 2 3 3 3 4 5 6 7 8 9 8 8 7 6 6 6 7 5 6 7 8 9
2 2 1 2 4 4 5 4 1 2 3 3 5 4 3 2 2 2 1 1 1 3 4 5 5 6 6 7 8 8 7 8 6 6 6 6 7 8 7 7 8 9 9
2 1 2 4 6 3 1 2 3 4 2 1 2 2 2 4 4 4 4 5 4 4 4 6 6 7 8 9 7 7 7 7 6 6 6 7 7 9 7 7 9 9 9
3 4 3 4 5 3 2 3 5 4 3 3 3 3 4 5 5 4 4 4 6 7 7 7 5 5 6 9 9 8 8 8 7 8 7 8 9 9 9 8 8 8 7
6 6 5 4 4 4 4 3 4 4 4 5 5 7 7 8 10 10 10 9 7 6 7 8 9 8 8 8 8 8 9 7 7 8 9 10 10 10 11 10 9 9 8
6 7 7 7 7 7 7 7 7 7 7 8 8 8 8 9 10 11 12 12 9 8 9 10 11 11 10 9 10 10 9 8 8 9 10 10 11 11 12 11 10 9 9

GFSGL_850_spd_090.txt.gz
Wind_Speed
25 25 24 23 21 20 16 17 15 15 18 19 17 17 16 16 12 13 31 25 34 41 43 44 39 37 37 25 22 21 16 18 17 18 19 19 20 20 18 19 17 20 22
20 24 25 20 21 19 18 17 16 15 15 14 14 14 14 13 14 14 17 24 33 38 47 39 31 31 30 26 23 18 18 18 18 19 22 23 25 27 26 27 22 22 23
21 28 26 23 21 20 18 15 16 14 13 13 13 13 14 14 16 14 11 16 25 30 40 40 34 32 28 22 23 23 26 25 27 32 37 38 36 27 24 23 24 25 24
24 32 28 27 22 21 19 19 17 16 15 14 14 14 13 15 16 14 14 16 23 28 27 32 32 29 27 28 30 31 30 31 37 32 29 24 19 16 18 20 22 22 23
23 31 31 28 24 22 19 17 16 17 16 15 15 16 13 15 17 17 17 16 21 27 30 32 32 32 33 33 32 32 32 25 18 17 16 14 15 17 18 20 20 18 17
21 19 25 25 23 22 20 20 18 17 16 16 16 16 17 14 16 15 18 21 21 23 27 25 24 25 26 26 27 24 20 19 20 20 20 20 21 22 23 17 15 16 20
16 19 22 24 23 25 26 27 21 20 19 18 17 17 18 17 16 15 14 17 20 20 19 17 19 19 19 19 20 20 21 20 21 24 26 27 27 26 26 24 23 22 21
10 13 17 20 21 23 24 24 24 23 23 21 18 18 19 19 19 18 17 19 19 20 20 19 17 16 17 18 19 19 19 20 21 21 22 19 18 16 18 17 17 17 18
15 14 12 8 11 17 22 22 22 24 23 21 20 18 16 16 18 19 21 21 22 21 20 19 19 18 18 18 16 16 15 14 12 11 9 10 13 11 12 14 13 13 13
20 18 17 15 13 14 12 14 17 18 21 19 20 17 14 14 13 15 17 20 21 19 15 15 15 14 12 10 10 11 11 8 6 6 5 4 5 5 5 3 3 3 5
16 16 17 19 18 19 18 15 14 15 15 17 18 17 16 14 14 11 10 13 12 12 13 13 12 11 9 8 9 9 7 9 7 6 6 6 5 3 2 2 1 1 1
11 12 15 15 15 15 18 18 17 17 14 16 15 15 16 16 15 14 11 10 10 10 15 16 19 16 16 15 12 13 12 11 10 9 7 7 5 3 2 1 1 2 3
10 14 14 13 14 13 15 17 15 16 19 22 22 23 21 18 17 17 16 15 15 19 20 19 18 15 14 14 13 12 11 10 8 6 5 4 2 2 2 3 3 4 5
9 12 13 13 13 13 14 15 15 18 19 19 21 22 22 21 19 17 17 15 14 16 17 15 13 12 10 11 10 9 8 7 5 4 3 3 2 1 2 3 3 5 7
14 13 13 13 14 15 15 15 15 16 14 14 16 17 16 17 15 13 12 11 9 9 8 8 8 9 10 10 9 7 6 5 3 3 2 2 2 1 1 2 3 5 6
13 15 16 14 14 14 13 15 15 15 14 14 13 11 15 15 13 10 9 8 7 6 6 7 9 8 8 7 6 5 4 3 3 2 2 2 3 4 4 4 4 5 6
8 8 8 10 12 12 13 12 13 14 13 13 13 12 10 11 9 8 6 5 7 5 5 7 7 7 6 6 4 4 3 2 3 2 3 4 5 6 7 7 6 5 6
5 5 4 5 6 7 8 9 10 11 11 11 13 11 10 8 7 5 4 3 5 6 5 5 5 5 5 4 3 3 3 3 3 4 4 5 6 7 7 7 8 9 9
6 5 5 4 4 4 5 6 6 6 6 7 7 6 7 5 4 4 5 4 4 5 4 3 3 3 3 3 3 3 3 3 4 6 5 6 8 8 8 9 9 10 11
3 4 4 3 3 3 4 3 3 2 3 3 4 5 4 3 3 3 3 2 1 2 2 1 1 1 1 2 3 4 5 5 6 7 8 8 8 8 9 10 10 11 11
3 3 2 1 0 1 1 1 1 2 3 4 4 2 2 2 2 2 2 3 3 2 1 1 1 2 3 3 4 5 5 6 6 7 7 7 8 9 10 11 11 11 12
4 2 3 3 2 2 2 2 1 1 2 2 2 1 2 2 1 0 1 2 3 3 3 4 4 4 4 5 5 5 6 6 6 7 7 7 8 9 11 11 12 12 13
6 4 1 2 4 3 3 4 3 2 2 1 1 2 4 4 4 4 4 4 4 4 5 6 6 5 5 5 5 6 7 6 6 7 7 7 7 9 10 11 12 12 12
5 6 5 5 6 6 5 5 6 5 5 5 4 4 4 4 4 4 5 6 6 4 4 5 6 8 8 8 8 7 7 8 8 8 8 8 8 9 9 9 11 11 11
7 7 7 6 6 6 6 6 6 6 7 7 8 8 8 8 8 8 8 6 6 7 7 6 6 7 7 7 8 8 8 8 9 9 8 9 9 8 9 10 10 9 10
9 8 8 7 7 6 7 8 8 8 8 8 9 9 10 10 11 10 10 10 9 8 8 8 7 8 7 7 7 8 9 9 8 9 9 10 10 11 12 12 11 12 11

GFSGL_850_spd_093.txt.gz
Wind_Speed
19 25 26 23 25 24 24 20 18 16 13 14 16 17 21 20 21 25 26 28 31 37 39 47 45 43 37 30 35 31 32 27 15 15 17 20 18 15 16 16 14 13 16
17 21 21 24 21 22 20 17 17 14 12 13 14 15 15 16 16 17 19 17 28 33 35 46 43 45 40 33 31 26 29 24 24 15 20 21 20 19 18 21 22 25 22
7 13 17 23 24 24 21 20 19 15 13 11 12 11 13 14 15 17 13 14 25 25 27 41 46 44 46 38 31 28 24 20 20 21 20 22 22 25 27 27 27 25 21
12 16 21 30 29 26 24 22 19 18 15 13 12 12 15 15 17 15 14 10 12 24 32 35 37 34 37 39 34 29 30 24 23 25 25 25 26 29 27 22 18 19 23
9 16 19 33 31 28 24 20 19 16 14 13 12 13 13 14 15 14 14 13 15 21 25 31 37 33 26 27 27 30 24 24 24 25 26 29 25 16 15 13 13 17 22
9 19 20 21 28 28 24 23 20 18 17 15 14 14 16 16 14 16 15 15 15 19 21 19 31 32 31 29 31 31 31 25 30 32 25 17 16 17 16 16 15 18 17
12 8 15 19 23 27 27 24 22 18 17 15 14 14 15 15 12 13 15 18 19 21 23 23 27 30 28 31 29 30 28 30 22 21 20 21 23 21 20 20 20 22 22
17 17 14 7 16 22 23 24 22 20 17 15 14 14 14 14 13 12 13 13 16 20 21 23 24 22 23 24 24 26 22 21 22 23 23 24 26 25 24 21 20 18 19
21 21 18 14 12 7 15 20 21 20 19 17 16 16 15 14 15 15 16 17 18 19 18 19 18 18 17 16 16 18 19 20 20 21 20 18 16 14 14 15 14 17 18
23 21 18 17 14 14 12 8 9 13 17 16 17 15 15 15 14 13 15 18 21 20 19 18 18 16 16 16 13 14 14 12 10 8 7 8 9 9 8 7 7 8 8
18 17 18 17 18 16 16 14 12 9 9 9 11 13 12 11 12 11 11 12 14 17 18 16 14 13 12 10 9 9 8 9 9 6 5 5 6 6 6 5 4 3 3
17 18 18 17 15 14 14 16 16 16 17 15 14 15 15 16 14 11 9 10 13 14 17 16 16 13 11 9 7 7 10 9 9 10 8 8 7 5 4 3 2 1 0
14 16 16 15 15 14 13 14 13 12 14 17 18 20 21 18 16 14 12 11 11 12 16 16 14 14 14 16 16 15 13 11 8 8 8 6 5 3 2 1 1 1 2
14 14 13 14 14 13 14 15 14 15 17 20 20 21 22 20 19 17 17 16 15 14 15 13 11 12 12 12 11 11 10 9 7 6 6 5 4 3 1 1 1 3 5
15 15 13 12 12 12 14 13 13 14 13 16 16 16 17 17 14 13 12 12 11 11 9 9 9 7 9 10 9 8 8 7 5 4 4 4 4 3 2 0 2 3 5
15 15 14 12 12 12 12 13 13 12 11 10 10 9 11 11 9 7 6 6 5 6 5 8 10 11 11 10 9 8 7 6 5 4 3 2 1 0 1 2 3 5 5
11 10 10 10 10 10 10 9 8 8 6 9 10 10 8 8 6 5 4 4 7 7 6 9 9 9 8 8 7 7 5 5 3 2 2 1 2 4 5 4 4 5 6
9 8 7 7 7 7 6 7 6 5 5 5 7 6 7 6 5 5 5 4 5 6 6 7 7 7 7 6 5 4 3 3 2 2 2 2 4 6 7 7 7 8 8
9 8 7 6 5 5 5 5 4 4 3 3 3 1 2 3 3 3 4 3 4 6 6 5 5 4 4 4 3 2 2 2 2 3 4 5 6 7 8 8 9 10 11
8 8 7 7 6 5 4 3 2 1 0 1 1 2 2 2 1 1 3 3 3 3 3 2 2 2 2 1 2 2 3 5 5 6 6 7 7 7 8 9 10 11 11
9 8 7 6 5 5 5 5 4 2 0 0 0 2 4 2 0 1 1 2 2 2 2 2 1 1 2 2 3 4 5 6 7 7 7 7 7 8 9 10 10 11 11
9 9 8 7 5 5 5 5 5 4 2 1 1 1 2 1 1 1 1 2 2 3 3 3 3 4 4 5 5 6 6 7 7 7 7 7 8 8 8 9 10 11 11
9 9 8 7 6 5 5 5 4 3 3 3 4 4 5 5 4 3 3 4 4 4 5 4 5 5 6 6 7 7 7 7 7 7 7 7 7 8 8 9 9 10 11
9 8 8 8 8 8 8 6 5 5 4 4 5 5 6 6 5 4 4 3 4 4 5 5 5 6 6 6 7 7 7 8 8 8 8 8 8 8 9 9 10 11 12
8 9 8 7 7 8 7 7 7 7 8 8 7 7 7 7 7 7 7 5 5 4 4 4 5 5 6 7 7 7 8 9 9 10 9 9 9 9 10 10 11 11 11
11 10 9 8 7 7 7 8 9 9 9 10 10 10 10 9 9 9 9 9 8 8 8 7 6 6 7 8 9 9 10 11 11 11 11 11 11 11 10 10 11 11 11

GFSGL_850_spd_096.txt.gz
Wind_Speed
15 12 12 15 13 13 23 30 25 21 20 21 19 19 21 21 21 22 24 24 24 24 28 31 36 41 42 42 44 37 35 35 26 26 25 26 24 22 25 24 23 20 19
8 8 11 16 14 20 29 25 23 21 21 19 20 20 19 19 19 20 22 23 24 25 26 29 46 44 41 44 38 34 30 32 30 27 25 23 22 20 18 18 19 17 15
6 5 6 9 18 18 26 24 23 22 21 20 19 18 16 15 14 13 13 14 17 23 24 29 29 41 46 41 39 39 32 29 33 29 26 19 19 21 20 15 17 19 22
1 5 4 11 12 23 30 26 24 22 20 16 15 14 13 13 12 13 13 14 14 14 23 18 39 44 46 43 38 39 34 31 26 26 24 25 26 27 24 21 22 25 25
9 3 11 18 20 27 30 28 23 21 18 17 16 13 12 14 13 13 13 13 13 10 18 26 26 41 37 44 40 38 36 32 28 24 25 28 28 27 29 29 31 28 25
15 7 2 14 12 22 23 25 24 22 21 18 15 13 13 10 8 9 10 10 12 14 16 20 27 28 42 45 42 35 34 32 29 28 26 29 30 25 29 26 24 23 23
21 17 16 9 8 18 28 31 30 25 19 16 14 12 10 9 8 10 9 11 13 14 14 15 16 26 28 21 26 27 29 34 28 26 29 27 27 24 23 20 21 21 22
23 23 22 16 9 5 6 26 26 23 19 16 14 12 10 9 7 9 8 11 14 18 17 16 15 17 18 23 27 28 30 29 27 25 23 22 21 21 21 22 22 23 22
29 25 23 21 17 13 12 11 15 18 19 17 14 12 10 8 9 8 8 11 13 14 15 15 16 19 22 24 23 25 26 24 23 24 22 22 22 22 22 20 17 17 16
27 25 22 21 20 16 15 15 14 11 11 10 11 10 8 7 9 10 10 12 14 14 14 13 14 13 15 17 16 16 16 16 14 16 14 13 11 10 8 10 11 11 12
22 22 22 21 22 20 17 16 15 15 14 12 12 13 11 10 10 7 8 10 12 14 14 14 14 11 12 13 13 12 11 13 11 10 8 7 6 6 5 6 6 7 5
20 21 22 22 21 19 19 18 17 17 16 18 18 19 19 18 16 16 13 10 9 8 12 13 14 13 12 12 14 14 12 11 10 11 11 13 12 12 10 8 7 6 5
19 22 22 20 20 20 20 20 19 18 18 19 19 21 21 19 18 17 15 13 12 14 17 17 15 12 9 13 14 14 15 14 14 13 13 13 11 10 8 6 5 5 4
20 20 20 19 19 19 20 21 22 22 22 22 22 23 22 22 20 18 18 17 15 17 18 16 16 15 14 13 15 15 13 12 12 12 10 9 8 6 5 4 3 2 2
19 18 18 19 19 18 18 19 19 20 18 18 18 16 16 18 18 16 15 15 13 13 11 12 13 12 12 12 11 10 10 11 10 12 11 9 7 6 5 4 2 2 3
16 17 17 17 16 16 16 16 16 15 13 13 12 12 15 14 12 12 10 8 7 7 4 6 8 9 10 11 11 11 10 10 9 9 8 8 6 4 4 2 1 2 2
15 15 14 14 13 13 13 12 11 10 7 9 10 8 8 7 6 5 5 5 5 8 6 9 10 10 10 10 9 9 8 8 8 7 6 6 5 4 4 3 2 2 3
15 14 13 13 12 11 10 9 8 7 7 7 6 5 4 5 4 5 6 6 6 8 8 9 9 9 9 9 8 7 7 7 6 5 5 4 4 3 2 2 3 4 5
14 14 14 12 11 10 9 8 7 7 6 6 6 5 5 5 4 4 5 5 6 6 7 7 7 7 6 6 6 5 5 4 4 3 3 2 2 2 3 4 4 5 6
13 12 12 12 11 10 9 8 7 5 4 5 5 5 4 4 3 3 4 4 4 5 5 5 5 4 4 3 3 2 2 2 2 1 1 1 2 2 3 3 4 4 5
13 12 10 9 9 9 9 8 7 5 4 4 4 4 4 3 2 2 1 2 2 3 3 3 2 2 2 1 1 1 1 2 2 2 2 1 2 2 2 3 4 5 6
12 12 10 8 8 7 7 7 7 6 5 4 4 5 5 3 2 1 1 1 1 2 2 2 2 2 2 2 2 2 2 3 2 2 2 2 2 3 3 4 5 5 6
10 10 9 8 7 6 6 6 6 5 5 5 5 5 5 4 3 3 3 3 3 4 4 4 4 4 4 4 4 4 4 4 4 3 3 3 3 4 4 5 5 6 7
10 10 9 8 7 6 5 5 4 4 4 5 5 6 6 6 5 3 3 2 2 3 4 4 4 4 4 4 4 5 5 5 5 5 5 5 6 6 6 6 6 7 8
10 9 9 8 7 6 6 6 5 5 6 5 5 5 5 5 5 5 5 3 3 2 3 3 4 4 4 4 5 5 6 6 5 6 6 6 7 7 7 7 7 8 9
12 11 9 8 7 7 7 7 7 8 8 8 8 8 8 7 7 6 6 6 6 5 4 3 4 5 5 6 6 7 7 7 7 7 8 8 8 8 9 9 9 9 9

GFSGL_850_spd_099.txt.gz
Wind_Speed
4 6 8 15 15 20 22 21 22 18 22 32 28 30 28 25 23 25 25 23 23 24 25 27 29 31 36 35 37 34 39 39 32 32 29 27 27 29 31 29 27 25 26
10 5 2 7 11 13 17 20 19 24 19 26 26 23 22 21 21 22 22 23 25 24 24 25 29 32 32 34 36 37 37 41 34 30 34 34 30 29 30 31 31 28 27
12 5 5 8 8 13 15 14 14 18 19 22 22 20 20 19 20 22 22 23 24 22 21 25 29 31 34 36 39 40 42 40 34 34 29 30 29 29 30 31 30 28 28
14 5 2 6 9 11 14 21 21 22 25 27 23 22 21 19 18 18 18 16 15 17 19 21 26 29 36 39 44 43 46 40 36 34 30 30 29 29 27 28 29 26 24
16 11 7 4 4 17 17 22 24 27 29 26 23 21 19 17 16 17 16 15 14 18 17 15 17 19 26 30 40 43 41 39 37 38 34 33 31 30 30 28 25 22 22
21 15 12 5 4 8 22 20 29 29 31 27 23 21 17 15 14 13 15 13 13 14 14 12 13 22 30 39 42 41 45 38 41 37 33 37 37 37 32 30 27 26 25
26 20 17 17 12 7 5 15 25 30 31 28 24 20 17 14 13 12 11 12 14 12 12 10 10 12 30 32 38 44 41 43 37 35 36 35 30 30 32 33 34 36 37
29 28 25 24 20 18 9 12 18 23 29 27 21 17 12 13 12 10 12 11 11 12 13 12 13 10 22 34 38 37 42 43 41 36 31 29 30 29 30 29 28 30 30
31 29 27 25 24 22 21 17 15 8 19 22 18 14 12 10 12 11 11 11 12 12 13 14 14 14 15 21 25 25 28 30 31 32 30 30 31 27 26 27 29 29 26
30 28 26 25 24 24 23 21 18 16 15 17 17 14 11 8 9 10 11 12 12 12 12 12 14 13 15 20 20 22 28 26 26 28 30 27 27 26 25 23 21 22 21
25 25 26 26 26 24 21 20 19 18 15 17 19 18 15 12 11 8 8 10 11 14 13 12 10 12 13 14 14 16 17 19 19 17 18 18 18 16 15 14 15 15 14
24 25 27 26 25 24 23 22 20 19 20 21 22 23 21 19 18 13 12 11 12 11 14 15 15 10 11 15 17 20 18 17 17 17 19 19 17 16 15 11 9 9 11
24 26 26 26 26 26 27 26 24 23 25 26 26 26 24 22 21 18 18 16 16 19 21 19 16 15 14 18 17 17 17 17 20 19 20 21 19 19 17 16 14 12 11
24 25 24 24 24 25 25 26 26 26 25 25 25 25 24 24 23 22 21 20 20 21 19 19 19 18 19 20 20 19 18 16 16 16 17 16 16 16 14 14 12 12 10
21 21 22 22 22 21 22 23 23 21 19 19 20 20 19 21 20 18 17 17 16 15 15 16 16 16 16 17 16 15 15 16 15 13 12 11 10 9 9 10 9 8 7
19 20 19 18 18 18 18 18 17 16 14 15 15 15 16 15 12 11 11 10 11 10 8 10 12 12 11 12 13 12 12 12 13 13 12 12 11 10 9 9 8 6 6
18 17 16 15 15 14 14 14 14 13 11 11 12 11 10 10 9 9 10 9 7 9 8 11 13 13 14 15 15 14 13 13 12 11 11 10 9 8 7 6 5 4 3
16 16 15 15 13 12 11 11 9 8 8 9 10 10 8 8 9 8 8 8 8 9 9 11 11 12 12 13 13 12 11 11 10 9 9 8 7 6 6 5 4 3 3
15 14 14 12 12 12 11 9 8 7 7 8 7 6 7 7 6 5 6 4 6 7 8 8 9 9 9 10 10 9 9 9 8 8 7 7 6 6 4 3 3 3 2
13 12 11 10 10 10 9 9 8 7 7 6 6 5 5 5 4 4 4 4 5 5 7 7 8 8 8 7 7 7 7 6 5 5 5 5 5 4 4 3 2 2 2
12 10 8 8 8 9 9 8 8 7 6 6 6 6 5 4 2 2 2 2 3 4 4 5 5 5 5 5 5 4 4 4 4 4 4 4 3 3 2 2 1 1 0
10 10 9 8 8 8 8 8 7 7 6 6 6 6 5 3 2 1 1 1 2 3 3 4 4 3 3 3 3 3 3 3 3 4 4 4 3 3 2 2 1 0 0
9 9 8 8 7 6 6 5 5 5 5 6 6 6 6 5 4 2 2 2 3 4 5 4 4 4 4 4 4 4 3 3 3 4 3 3 3 2 2 2 2 2 2
10 9 9 8 7 6 5 5 5 5 5 5 6 6 6 6 5 4 3 3 2 3 3 3 3 3 3 3 3 3 3 3 3 3 3 4 4 4 4 3 3 4 4
10 9 9 8 7 6 6 5 6 6 7 7 7 7 7 7 6 6 5 4 4 3 3 3 3 3 3 3 3 4 4 4 4 4 4 4 5 5 5 5 5 5 5
13 11 10 9 8 8 8 7 7 8 9 9 9 9 9 9 9 9 8 7 7 6 5 4 5 5 5 5 5 5 4 4 4 4 5 5 6 6 6 7 7 7 6

GFSGL_850_spd_102.txt.gz
Wind_Speed
17 5 4 10 16 21 24 28 33 34 33 37 31 20 19 36 36 36 29 30 27 30 30 28 29 28 29 28 31 30 31 30 34 27 34 40 42 35 30 29 29 28 29
20 12 2 6 10 14 19 19 25 31 31 35 31 18 25 25 28 28 31 30 27 28 28 27 29 30 30 32 33 35 36 36 34 34 33 37 36 34 31 30 29 31 32
22 14 8 1 8 12 14 18 24 26 31 32 32 38 46 33 28 30 28 28 28 26 26 28 29 27 29 31 34 34 35 37 36 37 34 35 36 34 32 32 34 34 31
21 19 13 9 2 4 10 10 16 24 27 28 32 32 30 29 27 26 25 26 27 26 25 26 26 27 30 32 32 37 34 38 39 39 36 37 39 36 35 36 36 33 34
22 20 18 10 7 5 7 12 19 21 24 29 31 32 30 26 25 26 27 27 22 23 22 23 25 25 28 32 37 38 36 42 43 40 36 34 36 34 35 38 38 37 33
26 23 19 13 8 6 3 13 21 27 30 30 31 27 26 24 26 26 24 24 22 22 21 22 21 20 20 24 22 33 35 45 45 43 37 40 38 38 36 37 39 38 33
28 26 24 20 20 17 13 7 9 23 32 34 35 29 26 26 25 22 22 21 20 21 20 19 21 20 18 13 21 33 36 40 40 43 38 36 40 43 45 40 41 39 35
29 29 27 26 23 20 17 13 5 7 15 18 25 25 27 24 21 19 19 18 17 16 16 16 15 14 13 17 21 31 33 36 37 37 34 38 36 37 40 39 36 34 32
30 29 27 25 24 23 24 23 20 13 11 16 20 17 20 17 18 17 17 16 15 15 14 14 14 14 12 15 24 31 36 39 36 33 36 36 39 39 37 36 38 39 33
29 27 26 26 24 24 23 22 22 20 20 15 15 19 18 14 14 15 12 13 14 13 13 12 14 12 13 15 16 25 29 29 29 34 36 37 34 30 34 36 34 38 36
26 26 25 26 26 25 23 23 24 24 22 22 20 20 20 16 13 10 9 11 11 12 11 10 10 9 11 14 15 18 21 23 23 25 26 26 27 25 26 25 24 25 28
24 27 28 27 27 26 27 27 26 26 27 26 26 27 26 24 20 18 11 7 7 8 12 13 13 10 10 9 12 15 18 18 18 19 20 20 20 19 20 20 20 18 16
23 24 25 25 26 27 27 28 29 29 30 29 29 28 27 26 24 24 22 16 14 14 15 13 12 12 16 19 19 18 17 17 19 21 24 24 22 21 21 18 16 14 12
19 20 21 23 24 23 25 26 25 25 24 24 26 25 24 24 24 24 21 19 20 20 20 17 16 17 17 19 19 18 18 19 18 18 19 18 19 18 18 16 14 17 16
17 17 17 18 19 21 24 24 24 23 21 21 20 18 18 20 20 17 15 15 16 16 17 17 17 18 20 19 19 19 19 19 18 18 17 17 16 15 16 16 16 15 13
16 17 17 15 15 14 14 17 19 18 15 15 13 13 13 13 10 10 9 9 10 10 11 13 14 15 16 15 15 16 15 14 14 12 12 11 10 9 9 10 11 13 13
18 15 14 15 14 13 12 11 11 14 14 14 13 12 11 10 9 8 8 6 3 4 4 8 9 10 11 11 11 12 12 13 13 13 13 13 12 12 11 12 12 11 12
16 17 15 14 13 12 11 10 10 10 11 12 13 13 11 10 9 8 7 7 5 5 7 7 7 8 9 9 9 10 12 12 12 12 12 12 11 9 9 8 8 7 8
16 15 13 13 14 13 11 10 10 9 9 9 9 10 9 9 9 7 5 4 5 6 6 6 7 7 8 8 8 9 9 10 11 10 10 10 9 8 7 7 6 6 6
13 14 13 11 11 11 11 10 9 9 9 9 8 8 7 7 6 5 5 5 6 5 5 5 6 7 7 7 7 8 8 8 8 8 8 8 7 7 7 6 5 5 4
11 11 12 10 11 11 10 10 9 8 8 8 8 8 7 6 6 6 5 5 5 4 3 3 4 4 5 5 5 6 6 6 7 7 7 7 7 6 6 5 5 5 4
10 10 10 10 10 9 8 9 8 7 7 7 7 9 9 7 6 5 4 3 1 1 1 2 3 4 5 6 5 5 5 5 6 7 7 7 6 6 5 5 5 4 4
9 9 8 8 7 8 7 7 7 7 7 6 7 7 7 6 6 5 5 4 4 4 4 4 5 5 5 6 6 6 6 6 6 6 6 6 5 5 4 4 5 5 4
9 9 8 8 8 7 7 7 7 8 6 6 6 6 6 5 5 6 5 5 5 4 5 5 6 6 6 6 7 7 7 7 7 7 8 8 6 6 5 5 5 5 5
9 9 8 8 8 8 8 7 7 7 7 7 7 7 7 7 6 5 6 8 7 6 6 5 5 5 6 6 7 6 6 7 7 7 8 8 7 7 7 7 6 5 6
9 9 8 8 8 9 8 8 8 8 8 8 8 8 8 8 8 8 9 8 8 7 6 6 6 6 6 6 6 6 5 5 6 7 7 7 7 7 7 7 7 5 6

GFSGL_850_spd_105.txt.gz
Wind_Speed
28 29 20 11 11 11 15 22 25 27 28 26 31 36 33 42 36 32 26 27 29 30 31 28 30 29 29 29 28 30 31 35 33 26 29 29 29 28 35 39 36 33 30
26 26 22 16 9 12 16 18 21 30 30 28 28 28 30 36 33 34 25 38 32 35 31 29 27 28 28 28 30 31 30 33 35 31 31 31 30 30 38 42 33 29 35
27 22 25 19 13 6 13 18 18 23 27 30 27 28 30 29 26 22 24 48 44 30 29 26 26 29 27 30 29 30 32 31 32 35 34 32 31 30 37 38 35 36 35
25 23 19 22 19 12 7 5 21 21 23 25 26 28 30 27 26 27 26 29 29 27 25 23 24 27 28 30 29 31 35 34 36 35 38 35 35 34 41 41 36 38 37
27 26 24 20 17 11 7 14 6 19 18 18 23 33 25 27 32 29 23 27 25 24 24 23 21 24 26 29 30 32 35 38 36 36 36 37 38 37 46 44 41 36 31
29 28 25 23 20 17 16 8 10 6 18 25 21 28 31 33 31 31 29 24 24 24 24 25 27 27 29 31 31 34 34 34 40 36 40 38 38 43 47 49 46 39 35
28 28 28 27 25 23 22 16 7 9 6 11 20 25 25 26 24 23 24 24 24 23 24 24 26 28 28 28 26 25 30 33 35 39 41 43 44 46 46 44 45 46 43
28 27 28 27 27 26 24 22 20 16 11 3 6 14 16 26 27 25 24 25 23 22 22 23 26 27 24 23 21 22 21 24 34 35 37 42 43 42 42 46 46 45 43
28 28 28 28 28 27 28 27 25 21 19 15 9 8 10 17 20 25 25 22 20 19 18 18 18 18 20 17 14 15 18 23 28 33 34 35 36 35 39 40 41 40 36
28 27 26 27 29 30 29 30 28 26 26 24 22 19 16 17 14 11 16 16 16 14 13 13 19 15 14 13 12 14 19 22 25 32 37 36 30 32 38 40 37 46 44
25 26 27 28 28 29 29 29 30 30 30 31 31 28 26 25 21 16 11 11 10 10 10 9 7 9 8 9 11 12 17 20 21 23 25 28 30 32 34 37 36 41 43
24 25 26 26 27 26 27 29 29 30 31 32 32 33 34 32 28 24 23 17 11 8 8 7 6 3 6 8 9 12 14 17 17 18 19 20 19 20 23 24 26 28 29
22 24 25 27 26 27 28 27 28 29 30 31 31 32 31 30 29 26 26 23 19 20 18 15 14 10 8 8 13 13 11 11 13 15 16 18 19 19 18 18 18 18 19
18 19 20 24 25 28 28 28 28 28 27 27 26 26 25 25 25 23 23 22 22 22 17 18 17 15 14 15 14 13 14 15 16 19 20 21 21 20 20 22 22 22 22
18 18 19 20 21 23 26 28 28 27 23 21 21 21 20 20 20 17 17 16 17 15 14 13 16 17 18 17 16 17 16 16 17 18 18 19 18 17 17 15 14 13 13
17 17 19 17 17 17 17 21 23 24 21 18 17 16 16 14 12 10 10 10 9 8 8 11 14 14 13 13 13 14 14 13 13 13 13 13 15 15 16 16 15 14 14
18 16 15 16 16 16 15 15 14 18 22 18 20 17 15 14 12 10 9 9 5 4 6 8 9 9 9 8 8 7 9 10 10 10 11 11 11 12 11 11 11 12 13
15 16 15 15 15 15 15 14 13 14 14 16 20 19 17 15 12 11 9 8 8 8 9 8 8 6 6 6 6 6 6 7 8 8 8 9 9 9 10 11 10 12 12
19 16 15 15 15 15 14 13 13 13 13 13 12 11 17 19 18 13 12 12 11 11 9 9 7 6 5 3 3 4 5 6 6 7 7 7 8 7 9 10 10 11 10
14 19 15 14 14 13 13 12 11 11 11 12 12 14 11 12 12 13 13 11 10 9 9 8 7 5 5 4 4 5 4 4 5 6 6 6 6 6 7 7 8 8 7
13 13 15 12 12 12 11 12 12 12 11 11 12 16 11 10 10 10 9 8 7 6 5 6 5 4 4 2 2 2 3 3 3 4 5 5 7 7 7 6 6 6 6
12 12 12 12 11 12 12 11 11 10 10 9 9 12 13 8 7 7 7 7 6 4 3 2 2 2 3 0 1 1 3 2 2 2 4 5 5 6 6 6 6 5 6
11 12 11 11 11 11 11 10 10 9 9 10 9 9 9 9 8 6 7 7 6 6 5 2 4 3 4 4 5 5 5 7 7 6 3 4 3 3 4 5 6 6 6
12 12 11 11 11 11 11 11 11 11 11 10 10 10 9 9 10 10 9 7 5 6 5 6 6 6 4 4 5 8 8 7 8 8 8 7 7 8 6 5 5 7 6
12 12 12 12 12 13 13 12 12 12 11 11 10 10 10 9 9 9 11 13 10 6 11 6 4 5 6 7 8 6 6 7 7 8 8 8 9 10 9 6 6 5 5
11 12 12 12 12 12 12 12 12 12 12 12 12 11 11 11 10 9 11 14 10 9 11 8 8 8 6 7 7 6 6 6 7 8 8 7 6 5 5 6 8 4 3

GFSGL_850_spd_108.txt.gz
Wind_Speed
30 28 27 27 23 25 23 20 19 22 27 32 34 31 30 33 34 41 41 40 40 33 35 34 36 34 29 27 28 27 25 25 29 27 28 22 21 21 23 26 30 32 40
32 30 29 26 24 23 22 21 16 16 24 28 34 32 32 34 35 37 39 36 35 32 29 32 33 34 28 25 26 26 24 25 26 24 28 29 27 26 27 25 29 42 40
30 30 29 26 23 24 19 16 17 15 26 29 28 29 28 29 36 39 42 39 36 30 23 31 27 31 28 25 28 25 24 25 25 26 29 34 33 33 28 24 33 44 42
30 30 30 29 26 24 21 16 16 14 14 21 17 23 21 28 31 36 41 40 33 33 26 26 26 25 21 26 27 25 23 23 26 27 32 33 33 33 30 31 36 42 42
29 30 31 29 27 25 24 18 11 14 14 10 20 20 23 23 24 28 34 33 34 28 32 22 23 21 19 23 21 23 25 25 28 28 34 33 32 32 36 36 42 43 42
28 30 30 30 30 29 27 26 20 13 14 10 3 15 13 23 23 23 25 25 25 23 26 27 24 24 21 19 19 21 25 27 30 33 37 40 38 35 36 39 44 45 40
28 30 31 32 31 31 30 27 26 23 15 12 8 5 9 15 25 25 25 28 26 23 29 32 27 25 24 23 24 27 28 30 33 34 37 38 41 40 39 41 47 50 47
28 30 32 33 33 32 32 32 30 28 26 22 17 14 5 2 20 23 25 29 31 28 27 23 24 22 20 23 24 25 24 27 31 33 38 37 38 38 39 41 48 51 44
30 30 31 30 31 32 34 36 36 34 33 32 28 24 21 16 10 5 19 24 23 24 22 20 20 19 21 22 20 18 18 19 22 22 20 31 34 34 42 46 47 49 42
30 30 27 27 29 31 32 33 34 36 37 35 35 34 32 27 21 16 6 14 20 17 14 13 15 14 15 17 17 14 13 12 15 14 19 23 27 32 35 43 43 46 51
28 28 28 27 28 28 29 31 32 34 35 37 38 38 38 36 32 26 22 15 15 14 13 9 5 7 11 10 12 12 13 13 14 14 16 22 27 32 36 37 33 34 43
26 26 29 31 30 30 29 29 30 32 34 36 36 37 36 36 35 33 30 27 24 22 22 20 17 12 6 2 3 7 10 11 9 10 13 16 20 24 29 34 34 37 40
23 25 26 26 29 31 31 31 31 31 32 32 32 33 33 32 31 31 29 29 28 27 25 24 20 18 16 15 14 9 5 6 7 9 10 11 11 13 16 19 22 27 30
21 21 24 27 27 28 30 32 32 33 30 29 29 28 26 26 27 25 24 23 23 23 22 19 20 19 19 18 18 17 15 11 9 12 14 15 15 15 15 14 15 17 19
20 21 20 20 21 25 27 29 31 33 31 29 27 24 24 24 22 18 19 20 19 17 16 16 18 18 19 18 19 18 17 18 19 17 18 17 17 17 19 18 17 16 23
18 19 20 19 19 19 19 22 25 27 27 26 26 24 22 19 16 15 14 13 12 12 11 14 16 16 17 14 15 15 12 14 14 12 14 14 13 13 14 15 18 20 25
18 18 19 20 20 21 21 21 20 21 23 25 24 23 23 20 17 16 16 14 11 9 12 13 13 13 12 12 11 10 10 12 9 10 11 12 11 11 11 12 12 12 15
20 16 18 20 20 20 20 21 20 21 22 23 22 18 21 25 23 16 15 12 13 14 13 12 11 10 8 8 8 9 9 9 9 9 10 11 11 10 10 11 11 11 11
19 18 15 16 16 15 16 16 17 17 19 20 24 19 15 16 17 19 13 15 15 16 16 13 10 9 9 9 7 5 5 6 7 7 8 8 8 9 10 12 14 13 13
12 16 16 14 15 15 13 16 15 16 15 19 23 25 19 16 18 18 17 11 12 10 11 12 11 9 6 5 4 5 4 5 6 7 7 8 6 7 10 12 14 14 12
14 14 14 16 15 16 16 16 16 15 15 14 18 20 21 15 14 15 18 15 10 7 6 6 4 5 4 2 3 0 0 1 3 5 6 8 8 9 8 10 11 10 10
15 15 15 15 15 14 15 13 15 15 14 15 15 15 17 17 15 14 16 14 12 11 8 6 8 9 6 4 2 1 2 4 4 3 4 6 7 8 8 7 8 9 10
13 13 13 13 16 14 14 15 13 14 15 14 15 15 15 16 17 18 17 17 15 14 14 8 9 10 8 5 5 7 6 6 6 4 6 6 4 5 5 8 8 9 10
14 14 13 13 15 16 16 15 14 13 14 14 14 13 14 15 15 16 17 20 21 16 15 16 14 9 6 8 11 7 6 5 5 9 8 9 8 9 7 7 10 9 7
14 15 16 16 16 17 17 17 16 16 16 15 15 15 14 14 14 14 15 18 21 18 14 15 15 17 12 9 9 9 6 4 4 6 9 8 9 11 9 8 5 9 7
13 15 15 15 17 18 18 18 20 17 18 17 17 15 14 15 15 14 12 15 13 17 19 13 18 16 14 11 8 8 7 4 4 6 8 7 10 10 11 9 8 4 4

GFSGL_850_spd_111.txt.gz
Wind_Speed
30 28 28 28 25 23 24 23 24 25 25 24 28 26 31 34 35 40 43 42 38 42 43 47 51 44 42 34 29 30 30 31 31 25 25 19 19 21 24 27 34 33 36
28 28 27 27 26 25 24 23 22 23 21 18 19 24 29 30 34 39 38 41 40 42 33 43 42 42 43 32 25 28 30 30 33 30 28 25 24 23 21 21 24 25 26
26 27 27 27 27 27 26 25 23 21 20 19 19 22 22 24 34 36 35 38 38 41 39 34 32 31 29 34 30 33 27 29 31 31 29 27 25 24 24 23 24 26 28
26 26 26 28 28 27 26 25 23 21 18 14 17 23 26 21 22 28 33 34 32 35 27 31 25 27 24 40 35 31 29 30 28 25 26 26 26 26 29 30 29 29 30
26 26 27 28 28 28 28 26 24 21 18 16 14 9 4 12 26 35 25 28 30 33 29 28 26 21 20 21 26 26 25 28 28 26 27 26 28 30 32 34 36 35 35
25 27 28 29 30 32 32 31 28 27 24 19 16 13 10 4 23 27 24 34 33 30 32 24 19 18 20 19 18 23 26 26 25 29 27 29 28 30 31 35 37 39 39
25 27 28 28 32 34 34 35 36 35 31 29 28 22 17 13 5 18 19 27 25 26 31 27 23 24 21 22 23 20 22 24 25 25 27 30 31 32 31 35 39 44 46
26 26 28 30 31 32 35 36 37 37 39 38 37 34 29 27 18 13 13 19 23 25 27 26 25 22 22 22 23 22 23 26 28 30 33 35 33 34 36 35 39 48 48
29 27 28 29 31 32 34 36 37 38 40 41 42 42 40 35 29 20 9 10 14 21 16 18 21 21 23 22 20 18 19 22 25 26 28 27 28 32 40 37 43 43 43
31 30 29 29 30 32 32 34 34 36 38 40 42 43 43 43 38 32 26 19 19 18 16 10 9 13 17 21 17 16 18 18 16 15 15 16 16 19 32 33 38 42 42
24 25 27 29 31 30 30 31 31 34 35 37 39 41 43 43 41 39 36 33 30 26 26 24 19 11 5 10 13 13 15 14 13 12 11 14 15 19 26 31 37 40 42
22 26 27 28 30 30 29 29 30 31 33 34 35 37 37 38 38 38 37 35 32 32 29 26 26 20 15 11 6 5 5 8 7 9 11 12 14 19 24 29 33 36 39
17 21 24 27 29 30 31 32 33 33 33 34 34 33 33 32 32 31 32 31 30 28 24 22 22 19 19 22 18 12 7 3 4 5 7 9 10 12 17 21 24 28 31
20 21 22 24 26 28 31 34 35 37 34 33 33 33 31 30 30 28 26 25 23 21 20 21 21 21 21 22 19 19 15 12 9 9 10 9 8 7 7 9 13 16 17
20 23 23 24 25 27 29 31 33 34 33 31 31 30 30 31 28 24 23 21 19 17 15 15 17 19 21 20 19 18 17 16 16 15 14 13 11 10 9 8 8 11 15
22 26 26 25 25 26 26 26 27 27 30 30 23 24 27 23 23 22 21 19 16 13 12 17 19 18 18 17 17 15 13 14 12 12 12 12 13 13 13 13 13 15 19
19 19 22 21 22 22 22 22 22 20 23 27 24 22 24 23 23 20 19 18 16 13 17 18 17 17 16 14 13 12 12 11 9 9 9 9 9 11 13 15 17 18 22
16 14 15 15 15 15 17 17 18 20 24 27 25 20 18 20 23 21 18 14 17 20 20 19 17 15 13 11 10 10 8 7 8 7 6 7 8 9 11 13 14 16 19
12 12 13 13 14 13 14 16 17 18 22 24 25 25 24 20 21 21 20 19 18 17 17 16 14 12 11 10 8 6 5 5 5 5 5 5 6 5 7 8 11 12 11
8 9 11 11 13 12 13 15 16 17 18 21 24 26 27 26 26 27 26 20 16 14 13 12 12 12 10 7 5 5 3 3 3 4 4 4 6 6 8 9 8 6 6
11 9 10 14 16 13 14 14 15 16 17 18 20 22 23 24 26 26 26 25 23 18 13 13 13 12 10 8 7 5 3 2 1 3 3 3 4 7 10 11 11 9 8
13 11 13 16 16 15 15 13 14 14 14 15 16 18 19 21 21 23 24 25 26 26 20 15 15 14 13 11 7 6 5 4 2 2 4 5 4 5 7 8 9 9 9
14 14 14 15 16 17 17 16 15 15 16 15 14 14 16 16 18 19 20 21 23 26 25 22 17 15 12 10 9 8 7 5 4 3 5 6 6 7 6 8 10 11 11
14 15 15 15 16 18 19 19 20 20 18 17 16 16 15 15 15 16 19 15 19 21 23 26 21 19 15 13 11 9 8 6 5 8 7 6 6 7 6 7 8 9 11
11 12 13 14 14 15 15 17 18 20 19 20 21 17 16 18 18 17 15 18 17 18 22 22 18 22 22 16 10 10 7 4 6 9 9 9 9 9 8 7 8 8 10
12 14 14 14 14 16 17 18 18 16 17 18 18 18 17 18 16 17 17 15 14 18 19 20 19 19 21 21 16 15 13 6 4 7 10 10 11 11 9 8 7 6 8

GFSGL_850_spd_114.txt.gz
Wind_Speed
24 23 23 24 23 22 23 25 25 24 26 26 27 29 28 28 28 30 34 35 33 36 45 45 49 51 50 48 44 39 37 38 38 31 23 18 23 22 27 33 32 27 27
23 22 22 22 23 24 23 24 25 24 24 24 25 26 26 23 26 30 29 29 35 35 42 43 47 54 53 49 50 38 33 37 40 34 28 24 26 25 25 28 35 37 36
19 22 22 23 24 24 24 23 23 24 23 21 22 22 23 22 18 22 24 30 32 38 40 47 45 41 47 47 39 32 36 39 42 28 32 29 28 27 25 25 27 32 37
20 23 25 26 26 26 26 25 24 23 21 19 18 18 17 19 19 19 23 25 33 37 43 42 43 41 50 38 40 37 38 49 44 34 33 31 30 29 25 28 29 28 30
22 25 27 27 27 27 27 28 26 24 24 22 18 16 16 17 16 17 20 26 32 46 28 37 33 33 27 38 38 36 37 43 39 34 31 30 32 29 30 30 30 30 34
25 27 27 27 28 29 31 31 29 28 29 28 26 25 22 19 20 15 14 20 20 23 29 30 25 27 30 29 31 29 35 37 33 34 30 31 32 29 27 29 27 36 38
25 27 28 28 29 31 32 33 36 36 32 32 33 34 33 27 25 14 8 10 15 15 20 28 27 29 27 25 28 26 23 27 31 31 29 33 31 30 29 30 29 33 37
28 27 27 27 28 29 31 33 34 37 38 39 39 39 41 37 27 21 16 8 2 12 13 15 22 24 22 28 33 29 26 31 31 28 30 31 31 27 29 29 30 37 39
29 28 27 27 26 27 29 31 32 33 35 38 40 42 44 44 39 30 26 25 22 18 10 4 13 16 23 23 21 27 32 27 28 26 25 26 30 31 34 35 38 39 38
25 25 25 26 27 27 27 28 28 29 31 33 36 38 39 42 44 42 36 33 32 30 25 20 12 7 13 16 17 19 20 23 23 24 27 29 31 32 32 37 37 41 44
17 20 22 24 26 27 26 26 26 27 28 30 32 34 36 38 39 40 40 38 36 34 34 33 29 21 13 4 5 10 12 13 19 19 20 19 19 22 25 28 32 35 40
15 18 21 23 25 26 27 27 28 28 30 31 32 33 35 34 34 34 34 34 33 34 33 30 27 22 22 15 12 9 3 5 9 13 14 13 14 17 20 25 27 30 34
15 18 20 22 24 26 28 30 32 32 32 34 35 35 36 35 32 30 29 28 27 27 25 23 23 25 23 22 18 14 11 6 3 4 7 9 9 11 13 18 21 24 27
17 19 20 22 24 27 30 32 35 37 33 33 34 35 34 36 36 32 29 25 24 23 20 20 20 21 22 22 21 20 19 16 12 10 8 4 4 4 6 9 13 16 19
18 19 20 22 23 26 28 28 31 32 29 28 30 29 32 32 30 28 27 26 23 21 17 16 19 20 20 21 20 20 19 17 16 14 11 9 7 5 3 4 7 10 14
16 18 19 20 21 22 22 22 23 25 26 23 22 24 24 25 24 24 25 23 20 18 17 21 22 22 22 21 19 18 16 15 14 12 11 11 11 8 6 5 7 10 14
14 14 16 17 17 17 19 20 22 21 23 25 25 24 24 26 26 22 20 21 19 17 21 22 23 21 19 18 18 17 15 14 12 12 11 9 8 8 7 8 10 12 15
12 12 14 14 14 14 16 19 20 23 26 28 27 27 29 30 28 25 22 16 19 22 22 21 20 19 18 17 16 15 13 11 11 11 9 9 8 5 6 8 10 13 15
10 12 14 15 15 13 13 14 16 18 21 24 25 27 29 29 28 27 26 27 25 22 20 19 18 17 16 14 13 12 12 11 11 9 9 7 6 5 5 7 9 10 11
10 11 13 14 13 13 14 14 15 16 17 20 24 25 26 28 31 31 29 29 28 27 24 20 18 17 15 13 12 11 10 9 8 8 7 7 6 4 3 3 6 7 8
9 10 12 13 14 14 14 14 15 16 16 16 15 17 21 23 25 27 28 28 28 28 27 25 22 18 15 14 12 10 9 8 7 6 5 4 4 2 1 2 2 0 2
9 11 12 14 14 16 16 17 18 18 18 17 16 17 20 20 20 21 22 22 23 24 27 27 24 22 19 15 13 11 10 8 7 6 5 4 4 3 4 4 4 2 3
10 11 11 11 12 13 12 14 15 17 17 19 19 21 19 19 19 19 17 16 20 22 25 26 23 22 21 18 16 13 12 10 8 7 5 5 5 5 4 4 5 4 4
9 12 14 13 14 14 14 13 13 14 14 14 16 17 18 19 21 20 19 19 18 19 22 22 23 23 23 22 17 16 14 12 8 7 6 5 5 5 4 4 4 5 6
11 14 16 16 15 15 16 17 17 16 16 16 14 12 14 17 16 17 19 17 18 19 22 23 23 22 22 22 19 18 17 13 9 7 7 6 7 7 6 6 6 6 8
14 16 17 15 16 17 18 17 17 18 17 16 15 13 12 12 10 12 13 16 14 16 20 21 21 20 18 18 20 21 19 14 9 7 7 7 8 8 8 6 5 5 7

GFSGL_850_spd_117.txt.gz
Wind_Speed
20 20 20 20 20 20 20 20 20 20 21 23 23 25 27 27 26 26 25 27 25 33 35 36 40 40 41 42 45 46 49 46 41 38 34 29 32 28 29 31 32 32 27
19 20 21 20 20 21 22 21 21 20 20 21 22 23 23 26 26 25 24 24 24 27 34 38 35 33 42 44 46 47 48 49 44 36 38 35 29 27 26 27 31 33 30
20 21 22 23 23 24 24 24 22 21 21 20 19 20 21 23 26 27 24 21 22 28 30 32 36 34 41 42 49 51 49 50 42 39 40 36 31 29 26 28 27 28 33
19 22 23 25 26 28 27 27 26 26 23 21 22 22 21 20 21 22 22 20 18 23 24 31 35 34 36 36 39 43 43 40 36 33 35 35 30 29 29 27 28 29 30
21 23 23 24 25 27 28 30 29 27 27 27 27 27 26 24 26 23 20 16 19 21 27 29 30 32 36 42 40 40 41 41 35 29 32 35 38 38 37 35 30 29 30
20 22 22 24 25 24 27 30 31 32 33 32 33 35 36 32 27 25 18 17 13 12 21 25 33 39 40 44 45 37 30 30 35 35 37 37 38 45 39 33 33 32 35
22 22 22 23 23 26 27 28 31 33 34 35 36 38 40 41 35 28 24 21 20 16 8 12 14 20 27 40 31 38 40 40 43 45 43 44 41 44 36 34 34 34 33
23 22 22 22 23 23 24 26 28 30 33 34 35 38 40 41 40 37 31 29 26 27 21 16 9 6 8 29 31 31 33 37 39 49 48 43 43 35 34 29 30 31 33
21 23 24 24 22 22 24 26 27 28 31 33 34 35 38 39 40 40 38 37 35 35 31 27 23 15 21 9 13 19 24 29 31 25 26 31 30 30 31 30 31 30 35
19 21 22 23 24 24 25 26 26 27 29 31 33 35 34 36 37 38 39 38 37 38 38 36 31 25 23 15 8 9 10 13 12 29 26 28 28 30 29 31 30 33 39
15 17 19 20 22 23 25 24 25 27 28 30 32 33 35 35 35 34 35 36 36 35 36 37 36 31 26 21 15 10 9 5 8 10 15 20 28 30 32 33 36 38 40
14 16 19 21 22 24 26 27 27 28 30 33 34 34 33 34 34 33 31 31 31 32 33 32 31 30 29 27 26 20 13 9 7 2 3 4 9 15 21 25 28 32 36
14 17 19 21 23 25 29 30 31 33 34 35 35 35 34 33 33 32 31 30 29 29 28 26 25 26 27 27 27 24 22 19 15 12 9 8 4 3 9 11 16 22 26
15 17 19 21 23 26 28 31 33 33 32 31 34 33 33 33 35 34 32 30 28 27 25 23 23 23 24 24 25 26 27 25 25 22 18 14 12 9 3 5 8 12 15
15 16 18 19 21 23 25 27 28 27 26 26 28 29 31 33 30 27 28 30 27 26 22 21 22 25 26 26 25 25 25 24 24 22 19 18 15 12 9 5 3 6 9
14 16 17 18 19 19 20 21 22 23 24 24 24 26 28 27 27 26 26 27 24 23 22 25 27 27 27 27 27 26 25 24 24 21 20 18 18 16 13 9 5 2 6
14 15 16 17 17 17 19 21 22 22 23 25 26 26 28 30 30 28 27 25 23 22 25 26 26 26 25 24 23 23 24 23 21 20 19 18 16 14 12 10 7 3 4
13 14 15 14 13 15 17 17 19 23 25 26 26 26 28 30 31 30 28 24 26 28 28 27 26 24 23 23 22 22 20 20 20 19 18 16 16 14 10 10 9 7 5
13 14 14 13 14 14 15 16 18 20 22 23 23 25 27 28 30 30 30 31 31 31 30 28 26 24 22 21 19 18 18 18 17 16 15 15 13 13 11 8 6 6 5
12 12 13 14 14 16 16 18 19 20 20 21 23 26 27 28 29 29 29 30 30 31 31 29 27 25 23 21 20 18 17 15 14 14 13 12 12 11 10 9 7 5 3
11 11 13 14 16 16 16 16 17 17 18 18 19 21 22 25 26 26 26 26 27 29 30 29 28 26 25 23 21 20 18 16 14 13 12 11 11 10 9 8 8 8 4
12 12 13 15 16 15 15 15 15 15 15 15 16 17 19 21 23 24 24 24 25 25 25 26 28 28 27 26 24 22 21 18 15 13 12 10 10 10 10 9 7 6 4
11 11 13 15 15 15 15 16 16 17 17 16 17 16 15 16 18 19 21 21 20 20 24 27 26 25 25 25 24 24 23 22 17 14 11 10 9 9 9 9 6 4 3
10 13 15 15 15 15 16 17 17 16 17 17 17 16 15 15 15 15 16 14 16 18 21 23 25 25 24 22 22 23 23 21 17 14 11 9 7 7 7 7 5 4 3
11 14 16 16 16 17 17 18 18 19 19 18 17 16 15 15 15 15 15 14 13 14 16 17 19 21 22 22 22 22 24 22 19 15 12 10 9 8 8 8 7 6 4
14 16 16 16 17 18 19 20 20 20 20 19 19 19 18 17 17 16 16 16 14 16 17 17 17 17 17 18 21 21 23 25 22 16 13 11 9 9 9 7 7 6 4

GFSGL_850_spd_120.txt.gz
Wind_Speed
16 16 17 20 19 20 20 20 20 19 19 19 20 20 19 20 18 18 19 19 21 20 22 23 28 33 37 39 38 39 44 46 43 38 36 31 32 31 31 31 38 41 40
16 16 18 17 19 21 22 22 21 20 21 21 21 21 19 20 20 22 22 21 18 17 19 23 26 33 34 36 37 39 39 42 43 40 41 39 37 36 27 34 35 37 39
15 16 19 21 21 23 22 22 22 23 22 22 22 23 23 24 24 23 21 21 16 15 16 16 23 29 35 37 37 38 39 40 39 40 40 44 43 36 32 37 35 32 34
17 19 20 22 24 25 24 24 25 25 25 25 26 29 29 27 27 27 24 20 16 13 13 16 14 20 28 32 34 37 35 37 38 40 41 44 39 31 44 47 37 33 34
15 18 22 22 22 22 22 24 26 27 30 31 32 34 36 35 34 32 28 24 21 17 13 12 14 20 25 26 34 37 32 33 33 41 35 37 34 36 42 42 38 33 34
16 19 19 18 19 20 21 24 25 27 29 33 35 37 39 40 36 34 31 28 25 23 22 18 16 16 21 29 33 35 37 33 37 37 35 38 39 45 44 42 40 37 35
18 18 17 16 18 20 21 22 24 28 29 32 35 36 37 37 37 36 35 34 32 31 31 29 25 22 18 21 24 32 41 40 42 37 38 38 38 36 35 42 43 40 38
16 16 17 18 18 19 20 22 25 27 29 33 34 34 35 36 34 34 34 36 37 38 38 36 35 32 26 19 12 12 22 30 28 33 30 32 33 33 37 41 45 45 36
15 17 17 19 19 19 21 23 24 27 29 33 34 34 36 36 35 35 34 36 39 40 40 41 40 37 33 25 18 12 8 8 14 22 40 35 37 36 42 43 46 39 42
14 15 16 18 19 20 21 22 24 28 30 30 32 33 33 36 37 38 38 38 39 38 38 40 41 40 36 31 28 22 20 16 14 7 10 20 26 35 47 48 45 42 42
11 13 15 18 20 22 23 23 25 27 29 31 32 34 35 36 37 36 38 39 38 38 39 40 38 36 35 34 33 31 28 20 16 14 8 4 3 12 21 30 37 37 41
11 14 17 18 20 23 24 26 28 30 33 35 35 36 36 37 37 36 35 35 34 35 36 34 32 31 31 31 33 30 28 25 23 21 19 16 11 11 7 9 14 26 30
11 15 17 19 21 24 26 29 31 33 35 37 38 39 38 38 39 38 37 35 33 33 30 27 25 26 28 29 31 32 32 33 33 32 32 26 21 18 12 10 5 10 20
12 15 16 18 20 23 26 29 31 34 34 34 35 36 37 39 41 40 39 36 34 32 31 28 26 27 28 29 30 32 32 32 33 33 32 28 23 21 17 12 9 4 6
13 14 15 16 18 21 24 26 27 28 28 30 33 34 37 39 36 33 35 36 35 32 29 27 29 31 31 32 33 33 32 32 32 31 31 29 28 26 25 21 13 10 6
11 13 13 15 17 18 20 21 22 22 23 25 26 29 30 28 31 33 33 32 30 29 30 33 34 35 35 35 34 33 32 32 32 30 28 27 27 27 25 22 19 14 9
11 12 13 15 17 19 19 21 21 22 23 26 27 28 27 28 33 33 33 32 31 31 35 37 37 35 34 33 32 31 31 29 27 27 27 26 24 23 22 21 19 16 13
11 12 14 15 16 15 16 18 19 22 25 27 28 30 31 31 33 34 34 31 35 37 37 36 36 35 34 33 31 31 29 27 26 25 24 24 23 22 21 20 19 17 15
11 13 14 14 15 15 15 17 20 21 23 25 26 26 28 30 31 32 34 36 36 36 35 35 35 35 34 33 31 29 28 26 25 23 22 21 21 20 19 19 16 14 12
11 13 13 14 15 16 16 18 19 21 21 23 24 25 25 27 29 30 30 30 30 30 32 33 33 33 33 32 32 31 30 28 25 23 21 20 18 18 18 17 17 15 12
10 11 13 14 15 16 16 18 19 20 20 20 19 19 20 21 22 23 25 24 24 26 29 31 31 32 32 33 32 32 31 29 26 22 20 19 18 18 16 15 15 14 11
10 11 13 15 15 15 16 18 19 19 19 19 18 17 17 17 18 19 20 19 18 19 22 25 27 29 30 31 32 33 33 32 29 24 20 17 16 15 15 14 12 12 10
10 12 13 14 15 15 16 18 18 18 18 18 19 19 18 17 17 17 17 17 17 18 19 21 22 24 25 27 28 29 31 32 30 27 23 19 15 14 14 14 12 10 8
10 12 13 14 15 16 17 18 18 18 19 19 19 18 18 18 18 18 18 18 18 18 19 21 21 21 22 24 25 25 26 28 29 27 24 20 16 14 13 12 12 10 7
11 13 14 15 16 17 17 18 19 19 19 19 20 20 19 19 19 19 20 20 20 20 20 20 21 22 21 22 23 23 23 24 27 27 24 20 16 14 13 13 12 10 8
11 12 14 15 15 16 17 19 19 20 20 21 21 22 22 21 21 21 22 22 23 22 22 22 23 23 22 22 22 22 22 22 23 25 25 23 18 14 12 11 10 9 8

GFSGL_850_spd_123.txt.gz
Wind_Speed
12 12 12 13 14 14 15 15 15 15 15 16 17 17 18 18 17 14 16 17 17 17 19 20 21 23 24 26 35 39 42 39 44 39 35 29 39 41 43 42 41 43 43
12 13 15 16 18 19 20 19 18 17 16 16 17 18 19 20 20 17 15 14 14 12 12 15 16 21 21 25 31 34 37 36 40 38 36 34 41 43 42 40 35 36 38
13 15 16 19 21 23 23 23 22 21 20 21 24 27 29 26 23 19 17 17 14 13 11 10 12 12 18 23 27 29 34 37 37 40 36 34 38 38 38 39 35 33 29
13 15 17 19 20 21 21 21 22 23 24 26 29 31 31 31 28 25 23 21 19 18 15 12 13 13 13 16 25 30 31 35 38 39 39 39 40 40 37 38 38 38 41
13 15 18 18 17 19 20 21 21 20 24 25 26 27 30 32 32 32 30 29 28 25 23 20 19 17 14 16 19 23 28 31 33 39 39 37 35 37 42 44 45 45 46
14 15 15 15 15 18 18 20 20 21 23 25 27 27 29 31 30 30 32 34 35 35 34 30 27 25 20 16 14 15 21 29 33 30 41 34 30 38 40 40 42 44 40
13 14 15 15 17 18 18 18 19 21 23 25 27 27 29 29 29 29 30 32 34 36 38 40 39 36 30 26 20 15 11 15 24 35 29 29 36 38 42 43 44 45 40
12 14 15 15 16 16 16 18 20 21 24 25 25 28 29 31 30 31 30 32 33 35 37 38 40 40 39 33 25 19 16 14 14 12 12 17 20 33 39 39 42 37 33
13 15 16 16 16 16 17 19 21 22 24 26 27 26 29 30 31 32 32 33 34 35 35 36 36 36 36 36 32 29 24 20 14 12 10 7 15 22 28 36 37 32 34
13 14 15 15 16 17 17 19 23 23 25 25 27 29 29 32 32 33 34 34 35 35 35 35 35 34 32 32 34 34 32 31 26 19 13 9 7 14 29 29 31 38 42
10 11 13 15 17 18 19 21 22 23 24 26 28 29 31 33 34 33 33 35 36 35 36 36 34 31 30 30 30 32 31 30 29 28 27 24 20 12 5 6 13 27 35
8 10 12 15 17 18 19 21 23 24 26 27 28 30 32 33 34 34 34 34 33 33 33 31 30 29 29 29 29 30 29 30 32 34 35 35 33 27 21 13 7 7 13
7 9 12 14 16 18 20 21 22 23 26 27 26 30 32 33 32 31 31 31 31 31 29 28 26 27 28 30 32 32 33 35 36 37 37 35 33 31 26 18 12 7 6
6 8 10 12 15 18 18 19 19 20 20 21 24 23 25 31 34 35 36 35 34 32 30 30 30 31 32 33 33 35 36 36 36 36 35 31 29 31 31 28 25 16 9
6 8 9 11 14 15 17 16 16 18 20 20 20 22 25 29 30 31 34 35 33 31 29 29 32 34 34 36 38 37 36 36 36 35 33 33 31 29 30 29 27 25 21
5 7 9 10 11 13 13 15 16 17 16 18 19 21 20 23 27 31 31 30 30 31 32 37 39 40 41 41 39 39 38 36 34 33 32 31 30 29 28 27 26 26 24
6 8 8 10 11 13 14 15 16 17 19 19 22 22 23 25 29 32 32 31 33 33 38 39 39 39 38 39 40 39 37 35 31 30 29 29 28 27 27 27 25 25 24
7 9 9 11 11 12 14 16 17 18 19 19 22 23 24 26 28 30 31 30 33 36 32 32 34 34 34 35 37 37 37 35 32 30 28 27 26 26 26 26 25 23 20
8 9 9 10 11 12 12 14 15 16 17 18 18 20 22 23 24 26 29 31 30 29 28 26 28 30 32 33 35 36 36 35 33 30 27 27 25 24 23 22 22 20 17
7 8 8 9 10 11 12 13 14 16 16 17 19 22 23 23 25 26 26 27 25 24 26 25 26 28 31 33 33 35 35 35 34 32 29 26 24 22 22 22 21 20 18
6 7 8 9 10 11 12 14 15 16 17 17 18 19 18 19 19 20 21 22 22 23 24 25 25 26 28 31 33 34 35 35 36 34 30 27 24 22 20 19 19 17 16
5 6 7 8 9 10 12 13 15 16 16 17 18 17 17 18 19 19 19 19 19 20 21 22 22 23 25 28 29 30 31 33 34 35 34 30 24 21 20 19 19 17 16
5 7 8 8 10 11 12 13 14 15 16 17 17 18 19 19 19 19 19 19 19 20 20 21 22 22 22 23 25 26 28 30 31 32 33 31 27 23 20 18 18 18 16
5 6 7 8 9 10 12 13 14 15 16 16 17 17 18 19 19 19 20 20 20 20 21 22 22 23 23 23 23 23 23 24 26 28 29 30 28 25 21 19 17 16 16
5 6 7 8 9 10 11 13 14 15 15 16 16 17 18 19 19 20 21 21 22 22 22 22 23 24 24 24 23 22 22 21 23 25 27 28 28 25 21 18 16 15 14
5 7 7 8 9 10 11 13 14 15 15 16 17 18 19 20 21 21 22 22 23 23 23 23 23 23 23 23 23 22 21 20 20 21 24 26 28 26 23 18 15 13 13

GFSGL_850_spd_126.txt.gz
Wind_Speed
11 12 12 13 14 14 14 14 14 12 12 13 14 15 16 15 13 11 11 11 12 13 14 14 17 21 23 25 26 29 32 37 43 36 30 33 34 32 31 33 35 35 32
11 12 13 13 14 13 14 16 16 15 16 18 19 21 23 22 19 16 15 14 13 15 14 12 13 15 16 18 26 29 28 31 39 37 41 35 37 36 32 34 36 42 39
10 11 12 13 14 13 14 14 14 15 17 19 22 24 25 26 25 23 21 19 18 19 18 18 18 17 15 15 16 22 28 25 29 36 38 38 41 39 38 37 38 41 41
8 10 11 12 13 14 13 14 14 15 17 18 20 22 23 24 25 25 26 25 23 22 21 22 23 22 19 18 16 17 20 29 33 35 27 30 35 38 39 36 37 39 40
7 8 10 11 11 12 13 14 14 15 16 16 18 21 21 24 25 23 22 22 25 28 29 28 28 23 20 17 17 18 18 20 22 27 31 26 32 35 38 38 44 42 45
8 8 9 9 11 12 13 14 13 14 16 17 18 19 23 24 23 21 22 23 25 27 27 28 31 32 26 23 17 15 19 18 18 19 21 24 32 30 27 38 43 42 39
7 8 9 9 10 12 12 12 13 15 15 17 19 20 23 24 23 21 23 23 25 26 28 29 30 31 33 30 23 19 18 14 15 16 18 21 26 27 27 29 33 44 42
8 10 10 10 10 11 11 13 14 15 18 19 20 21 22 25 24 23 22 22 23 25 27 29 30 31 31 29 27 26 23 21 20 19 17 18 18 23 29 31 35 34 41
9 10 11 11 10 10 12 14 15 15 17 20 21 23 24 25 26 25 25 24 24 25 26 28 29 29 30 29 28 27 27 26 21 16 14 13 14 15 20 28 30 33 37
9 10 10 11 11 12 13 15 15 16 17 18 21 22 24 25 26 28 28 27 26 25 25 26 28 29 28 28 28 29 30 30 29 25 22 19 18 19 16 12 13 13 14
9 9 9 10 11 12 13 14 15 16 17 18 18 21 23 25 25 26 27 28 27 26 27 27 28 28 27 27 27 29 29 26 26 28 28 29 27 27 26 22 16 12 11
7 7 9 10 11 12 13 14 15 15 16 16 17 17 19 22 23 24 25 25 25 25 26 25 24 25 25 27 27 27 26 27 29 30 31 34 34 33 32 27 20 14 13
6 7 8 9 10 12 13 14 14 15 15 16 16 17 19 21 23 25 25 24 24 23 23 23 23 25 25 27 29 29 30 32 32 33 35 34 33 30 29 29 25 17 14
7 7 7 8 10 11 11 13 14 14 14 15 15 17 17 20 24 26 26 27 27 25 24 25 26 27 29 30 31 33 34 33 31 31 32 32 30 31 31 31 32 30 26
6 6 6 7 7 9 12 12 11 14 14 13 14 13 17 19 22 23 25 25 23 22 22 24 27 30 33 35 34 34 33 34 33 31 32 33 33 32 32 30 28 30 29
6 5 6 6 6 7 6 7 12 11 12 14 16 16 13 18 22 22 22 24 25 25 22 25 27 28 29 31 32 32 32 33 32 29 29 30 32 31 31 31 29 25 27
7 6 6 6 6 6 6 6 5 10 13 14 14 13 14 15 18 20 19 19 23 21 23 24 25 26 27 27 29 29 30 30 30 28 28 29 30 29 30 31 31 28 27
7 8 7 6 6 6 6 5 5 6 7 8 12 12 13 14 16 19 19 16 19 21 21 22 23 24 25 26 27 28 28 29 30 29 28 28 29 29 32 31 30 31 29
7 7 6 5 5 5 4 4 5 5 6 7 9 11 12 13 14 16 17 17 18 19 20 20 21 22 23 23 25 26 27 29 30 30 29 29 29 27 28 28 29 28 28
6 5 5 4 3 3 4 4 5 6 6 7 9 13 13 11 13 15 16 16 16 16 16 17 18 19 20 21 23 24 25 27 29 29 30 30 29 26 26 27 27 28 26
5 4 4 4 2 2 3 4 4 5 5 6 7 12 13 11 12 13 14 15 15 16 16 16 16 17 18 19 20 22 23 24 25 27 28 28 29 29 27 24 24 23 23
4 2 2 1 1 2 3 4 5 5 6 7 7 9 13 11 12 12 12 14 14 14 15 16 16 16 17 19 19 19 20 21 23 24 27 27 27 26 27 25 24 23 22
3 1 1 0 2 3 4 4 5 6 6 8 8 9 12 13 13 14 15 17 18 19 19 20 20 20 22 23 20 18 19 19 20 21 23 25 26 27 26 25 23 23 22
2 2 1 1 2 3 4 5 6 7 7 8 9 11 13 14 15 16 18 19 19 20 21 21 21 22 23 23 22 19 21 21 21 21 22 21 23 25 25 25 23 23 22
3 2 2 2 2 2 3 4 5 6 7 9 10 12 13 14 15 17 18 19 20 21 21 21 22 22 23 23 22 23 22 21 19 19 20 19 21 24 24 23 22 22 20
3 2 2 2 2 2 3 4 5 6 8 9 11 12 14 15 16 18 19 20 20 21 21 22 22 22 23 23 22 23 22 20 18 17 18 16 19 22 23 22 22 20 18

GFSGL_850_spd_129.txt.gz
Wind_Speed
7 8 9 10 11 12 13 13 14 14 15 15 15 17 18 17 15 14 12 12 13 14 12 12 13 15 17 18 22 23 26 26 30 31 35 34 36 27 29 31 37 37 37
7 8 10 11 11 12 13 14 14 14 15 16 18 18 18 18 16 18 17 16 17 18 17 17 17 15 14 13 14 16 20 25 27 33 36 27 30 29 27 33 36 32 35
5 6 7 9 9 10 11 12 13 14 16 15 17 18 19 18 15 18 18 19 20 21 21 24 24 21 19 17 14 14 16 17 20 24 28 28 31 34 35 36 41 39 42
4 5 6 8 9 10 10 11 12 13 13 14 15 17 18 18 17 18 17 17 17 18 19 22 26 25 25 24 21 20 19 18 18 19 18 24 26 23 22 28 32 36 42
4 5 7 8 8 9 10 11 11 12 12 13 13 16 17 19 18 17 16 17 17 18 20 21 25 23 20 23 25 26 23 21 20 20 19 19 20 25 25 27 27 28 31
5 6 6 7 7 8 9 9 10 11 12 13 14 16 19 19 15 15 16 16 18 21 23 22 22 24 24 23 23 23 27 28 26 24 23 23 22 23 25 27 31 37 38
6 6 5 5 6 7 8 8 10 11 12 13 15 15 18 19 16 14 17 16 18 21 24 25 25 26 25 24 23 23 22 21 21 23 24 25 25 26 27 29 28 30 38
6 5 6 6 7 8 8 9 10 11 13 14 16 16 18 21 19 16 16 17 18 21 23 26 26 27 27 27 24 22 21 22 22 21 19 20 20 23 24 25 28 35 39
6 6 6 6 6 7 8 9 10 11 12 14 15 18 19 22 22 22 18 16 19 20 21 25 26 26 26 26 26 24 22 20 20 18 18 18 17 20 23 23 25 27 32
8 7 7 7 7 7 8 10 10 11 12 12 14 17 19 21 21 22 23 21 20 20 21 23 26 26 27 27 27 27 27 27 26 23 21 20 22 23 24 26 27 28 30
8 7 6 7 8 8 9 10 10 11 11 12 13 15 17 19 19 20 21 22 21 20 21 22 23 23 24 25 26 28 28 25 25 26 27 27 27 28 28 28 26 24 26
8 7 7 8 8 9 9 10 12 11 11 12 13 14 17 19 19 20 20 20 19 20 21 21 22 24 24 25 26 26 26 26 26 28 29 32 33 32 31 29 25 23 18
8 7 8 9 10 9 10 10 9 11 11 12 13 14 16 19 21 23 23 23 22 19 19 22 23 24 26 27 28 28 29 31 29 29 29 30 31 30 29 29 26 24 23
9 8 8 8 9 8 8 9 10 11 11 11 12 13 14 17 20 22 23 23 23 21 21 22 24 24 26 28 29 31 32 32 30 29 29 29 31 32 32 33 34 33 30
9 8 7 7 6 7 8 10 9 12 12 11 12 11 14 17 21 20 20 24 23 24 21 21 25 28 30 32 32 32 34 33 33 31 31 32 33 33 33 33 32 34 34
10 8 8 6 6 6 4 7 11 14 15 17 14 12 11 15 18 20 19 20 24 21 19 23 26 27 29 30 32 33 33 34 34 32 32 32 33 32 33 33 33 34 34
10 9 8 7 6 6 5 5 5 13 15 17 20 18 13 13 17 19 18 17 18 19 19 20 22 24 24 24 26 27 28 29 30 31 32 32 33 31 33 34 33 35 36
12 13 9 7 6 5 5 5 5 5 6 10 16 17 14 13 15 17 17 13 15 17 17 18 20 21 22 22 24 25 26 28 30 30 31 32 33 31 33 33 33 34 35
10 8 7 6 5 5 5 4 4 4 4 5 7 10 12 13 14 15 16 15 15 16 17 17 18 19 20 21 22 24 25 27 28 30 31 31 32 31 32 32 31 32 32
8 8 9 4 5 4 4 3 3 3 4 5 7 10 11 10 10 12 13 13 13 14 15 16 17 18 19 20 22 23 24 25 26 27 29 31 31 30 31 32 32 32 32
6 6 6 5 4 3 3 3 3 4 4 4 6 12 11 10 10 10 12 13 14 14 15 16 16 17 18 19 20 21 22 23 24 25 27 29 29 31 32 31 32 30 29
6 5 4 3 2 2 3 2 2 2 3 4 4 9 11 8 8 9 11 13 14 14 14 16 16 16 18 21 21 21 21 23 23 24 26 27 27 28 32 32 32 31 31
6 5 5 3 1 0 1 0 1 1 2 4 4 6 7 7 8 9 11 13 15 17 17 18 19 20 21 23 22 19 20 23 25 25 23 26 25 26 31 33 32 32 32
6 5 5 4 3 2 1 1 2 3 2 3 4 5 6 7 8 10 12 15 17 18 18 20 20 21 23 24 23 20 24 26 26 24 22 21 24 23 28 31 31 30 30
6 6 4 3 3 2 1 2 2 2 3 3 4 5 6 7 9 11 12 15 17 19 19 20 21 21 22 23 21 24 25 24 23 22 21 20 20 22 25 28 30 29 29
6 6 5 4 3 3 3 3 3 4 4 4 5 6 7 8 9 12 13 16 18 18 19 20 21 22 22 22 22 24 24 23 22 20 19 17 19 21 25 27 27 27 27